• In Kazakhstan
  • List of Countries
  • For 7 days
  • Water Temperature
  • Satellite Maps
  • Weather Map
  • News
  • Weather Widgets
  • user-avatar
    Login

    Hourly Weather San Luis

    Today, 20 January, Sunday

    Time Temperature Precipitation Wind Pressure Humidity
    00:00 +21°C° 0 mm 8 mps 699 mmHg 49%
    01:00 +21°C° 0 mm 9 mps 698 mmHg 49%
    02:00 +19°C° 0 mm 10 mps 698 mmHg 51%
    03:00 +18°C° 0 mm 9 mps 698 mmHg 52%
    04:00 +18°C° 0 mm 9 mps 698 mmHg 54%
    05:00 +18°C° 0 mm 8 mps 698 mmHg 55%
    06:00 +20°C° 0 mm 8 mps 698 mmHg 51%
    07:00 +22°C° 0 mm 8 mps 698 mmHg 47%
    08:00 +23°C° 0 mm 9 mps 699 mmHg 43%
    09:00 +26°C° 0 mm 8 mps 699 mmHg 38%
    10:00 +28°C° 0 mm 8 mps 699 mmHg 33%
    11:00 +30°C° 0 mm 7 mps 699 mmHg 27%
    12:00 +32°C° 0 mm 7 mps 698 mmHg 26%
    13:00 +34°C° 0 mm 6 mps 698 mmHg 24%
    14:00 +35°C° 0 mm 6 mps 697 mmHg 22%
    15:00 +35°C° 0 mm 6 mps 696 mmHg 23%
    16:00 +35°C° 0 mm 6 mps 696 mmHg 24%
    17:00 +34°C° 0 mm 6 mps 695 mmHg 25%
    18:00 +32°C° 0 mm 5 mps 695 mmHg 32%
    19:00 +29°C° 0 mm 5 mps 695 mmHg 38%
    20:00 +27°C° 0 mm 5 mps 695 mmHg 44%
    21:00 +27°C° 0 mm 6 mps 695 mmHg 46%
    22:00 +26°C° 0 mm 8 mps 696 mmHg 47%
    23:00 +24°C° 0 mm 9 mps 696 mmHg 49%

    Tomorrow, 21 January, Monday

    Time Temperature Precipitation Wind Pressure Humidity
    00:00 +24°C° 0 mm 9 mps 696 mmHg 50%
    01:00 +24°C° 0 mm 8 mps 696 mmHg 51%
    02:00 +23°C° 0 mm 8 mps 696 mmHg 52%
    03:00 +23°C° 0 mm 7 mps 696 mmHg 53%
    04:00 +23°C° 0 mm 6 mps 696 mmHg 54%
    05:00 +22°C° 0 mm 5 mps 696 mmHg 55%
    06:00 +25°C° 0 mm 5 mps 697 mmHg 51%
    07:00 +26°C° 0 mm 4 mps 698 mmHg 47%
    08:00 +27°C° 0 mm 4 mps 698 mmHg 43%
    09:00 +29°C° 0 mm 3 mps 699 mmHg 39%
    10:00 +31°C° 0 mm 3 mps 699 mmHg 34%
    11:00 +34°C° 0 mm 3 mps 699 mmHg 29%
    12:00 +35°C° 0 mm 3 mps 699 mmHg 27%
    13:00 +36°C° 0 mm 2 mps 698 mmHg 25%
    14:00 +37°C° 0 mm 2 mps 698 mmHg 23%
    15:00 +37°C° 0 mm 2 mps 697 mmHg 22%
    16:00 +37°C° 0 mm 2 mps 696 mmHg 21%
    17:00 +37°C° 0 mm 2 mps 696 mmHg 21%
    18:00 +35°C° 0 mm 3 mps 695 mmHg 26%
    19:00 +33°C° 0 mm 3 mps 695 mmHg 30%
    20:00 +30°C° 0 mm 3 mps 695 mmHg 35%
    21:00 +29°C° 0 mm 4 mps 695 mmHg 39%
    22:00 +28°C° 0 mm 4 mps 695 mmHg 43%
    23:00 +27°C° 0 mm 5 mps 696 mmHg 47%

    Day after tomorrow, 22 January, Tuesday

    Time Temperature Precipitation Wind Pressure Humidity
    00:00 +27°C° 0 mm 6 mps 695 mmHg 49%
    01:00 +27°C° 0 mm 7 mps 695 mmHg 51%
    02:00 +27°C° 0 mm 8 mps 695 mmHg 53%
    03:00 +27°C° 0 mm 8 mps 695 mmHg 55%
    04:00 +26°C° 0 mm 8 mps 695 mmHg 56%
    05:00 +26°C° 0 mm 8 mps 695 mmHg 58%
    06:00 +27°C° 0 mm 8 mps 695 mmHg 54%
    07:00 +29°C° 0 mm 8 mps 696 mmHg 51%
    08:00 +31°C° 0 mm 8 mps 696 mmHg 47%
    09:00 +33°C° 0 mm 6 mps 697 mmHg 42%
    10:00 +34°C° 0 mm 5 mps 697 mmHg 37%
    11:00 +36°C° 0 mm 3 mps 697 mmHg 31%
    12:00 +37°C° 0 mm 3 mps 697 mmHg 29%
    13:00 +38°C° 0 mm 2 mps 696 mmHg 27%
    14:00 +39°C° 0 mm 1 mps 696 mmHg 24%
    15:00 +39°C° 0 mm 1 mps 695 mmHg 24%
    16:00 +39°C° 0 mm 2 mps 695 mmHg 23%
    17:00 +40°C° 0 mm 2 mps 694 mmHg 22%
    18:00 +38°C° 0 mm 2 mps 695 mmHg 26%
    19:00 +36°C° 0 mm 2 mps 695 mmHg 29%
    20:00 +34°C° 0 mm 2 mps 695 mmHg 32%
    21:00 +33°C° 0 mm 3 mps 695 mmHg 36%
    22:00 +31°C° 0 mm 3 mps 696 mmHg 40%
    23:00 +30°C° 0 mm 3 mps 696 mmHg 44%

    23 January, Wednesday

    Time Temperature Precipitation Wind Pressure Humidity
    00:00 +30°C° 0.2 mm 3 mps 696 mmHg 47%
    01:00 +29°C° 0.2 mm 2 mps 696 mmHg 50%
    02:00 +28°C° 0.2 mm 2 mps 696 mmHg 53%
    03:00 +28°C° 0.1 mm 3 mps 696 mmHg 55%
    04:00 +28°C° 0.1 mm 3 mps 696 mmHg 57%
    05:00 +27°C° 0.1 mm 3 mps 697 mmHg 59%
    06:00 +29°C° 0.1 mm 3 mps 697 mmHg 56%
    07:00 +30°C° 0.1 mm 3 mps 698 mmHg 52%
    08:00 +31°C° 0.1 mm 3 mps 699 mmHg 49%
    09:00 +34°C° 0.1 mm 3 mps 699 mmHg 45%
    10:00 +35°C° 0.1 mm 2 mps 699 mmHg 42%
    11:00 +36°C° 0.1 mm 2 mps 699 mmHg 38%
    12:00 +37°C° 0 mm 2 mps 698 mmHg 38%
    13:00 +37°C° 0 mm 2 mps 698 mmHg 37%
    14:00 +37°C° 0 mm 2 mps 697 mmHg 36%
    15:00 +37°C° 0 mm 3 mps 696 mmHg 36%
    16:00 +38°C° 0 mm 4 mps 696 mmHg 35%
    17:00 +39°C° 0 mm 5 mps 696 mmHg 35%
    18:00 +36°C° 0 mm 4 mps 695 mmHg 39%
    19:00 +35°C° 0 mm 4 mps 695 mmHg 42%
    20:00 +33°C° 0 mm 3 mps 695 mmHg 46%
    21:00 +33°C° 0 mm 4 mps 695 mmHg 48%
    22:00 +32°C° 0 mm 4 mps 696 mmHg 50%
    23:00 +32°C° 0 mm 5 mps 696 mmHg 53%

    24 January, Thursday

    Time Temperature Precipitation Wind Pressure Humidity
    00:00 +30°C° 0.1 mm 5 mps 695 mmHg 54%
    01:00 +30°C° 0.1 mm 6 mps 695 mmHg 55%
    02:00 +30°C° 0.1 mm 7 mps 695 mmHg 56%
    03:00 +31°C° 0.1 mm 8 mps 695 mmHg 57%
    04:00 +31°C° 0.1 mm 9 mps 694 mmHg 58%
    05:00 +29°C° 0.1 mm 10 mps 694 mmHg 59%
    06:00 +32°C° 0 mm 10 mps 695 mmHg 55%
    07:00 +33°C° 0 mm 10 mps 695 mmHg 52%
    08:00 +34°C° 0 mm 10 mps 695 mmHg 49%
    09:00 +36°C° 0 mm 10 mps 695 mmHg 45%
    10:00 +37°C° 0 mm 10 mps 695 mmHg 41%
    11:00 +39°C° 0 mm 11 mps 695 mmHg 37%
    12:00 +41°C° 0 mm 11 mps 695 mmHg 34%
    13:00 +42°C° 0 mm 11 mps 694 mmHg 32%
    14:00 +43°C° 0 mm 10 mps 693 mmHg 29%
    15:00 +43°C° 0 mm 10 mps 693 mmHg 28%
    16:00 +43°C° 0 mm 10 mps 692 mmHg 28%
    17:00 +43°C° 0 mm 10 mps 692 mmHg 27%
    18:00 +40°C° 0.1 mm 9 mps 692 mmHg 32%
    19:00 +38°C° 0.1 mm 8 mps 692 mmHg 36%
    20:00 +35°C° 0.1 mm 7 mps 692 mmHg 41%
    21:00 +35°C° 0 mm 9 mps 692 mmHg 40%
    22:00 +36°C° 0 mm 10 mps 692 mmHg 39%
    23:00 +36°C° 0 mm 12 mps 693 mmHg 38%

    25 January, Friday

    Time Temperature Precipitation Wind Pressure Humidity
    00:00 +34°C° 0 mm 12 mps 693 mmHg 40%
    01:00 +34°C° 0 mm 11 mps 692 mmHg 42%
    02:00 +33°C° 0 mm 11 mps 692 mmHg 45%
    03:00 +32°C° 0.1 mm 10 mps 693 mmHg 48%
    04:00 +32°C° 0.1 mm 9 mps 693 mmHg 51%
    05:00 +32°C° 0.1 mm 8 mps 693 mmHg 54%
    06:00 +31°C° 0.9 mm 9 mps 694 mmHg 57%
    07:00 +29°C° 0.9 mm 10 mps 695 mmHg 60%
    08:00 +28°C° 0.9 mm 11 mps 696 mmHg 63%
    09:00 +29°C° 0.2 mm 11 mps 697 mmHg 53%
    10:00 +29°C° 0.2 mm 11 mps 698 mmHg 44%
    11:00 +31°C° 0.2 mm 11 mps 698 mmHg 34%
    12:00 +32°C° 0.1 mm 11 mps 698 mmHg 30%
    13:00 +33°C° 0.1 mm 11 mps 698 mmHg 25%
    14:00 +34°C° 0.1 mm 11 mps 699 mmHg 20%
    15:00 +34°C° 0 mm 11 mps 698 mmHg 20%
    16:00 +34°C° 0 mm 11 mps 698 mmHg 20%
    17:00 +33°C° 0 mm 11 mps 698 mmHg 20%
    18:00 +32°C° 0 mm 10 mps 698 mmHg 23%
    19:00 +29°C° 0 mm 10 mps 698 mmHg 27%
    20:00 +27°C° 0 mm 9 mps 698 mmHg 30%
    21:00 +27°C° 0 mm 9 mps 698 mmHg 32%
    22:00 +26°C° 0 mm 9 mps 699 mmHg 33%
    23:00 +24°C° 0 mm 9 mps 699 mmHg 35%
    Show more